Weather in Goryachevo

Russia / Ivanovo Oblast     56°32′43″N   41°33′58″E
temp.,
°C
wind,
m/s
gust,
m/s
humid.,
%
clouds,
%
prec.,
mm/h
press.,
hPa
HPBL,
m
19 january, wed
wed1900:00−14wnw369866 0.0 101386
03:00−18w2210084 0.0 101421
06:00−17w2510080 0.0 101564
09:00−18w2210080 0.1 101640
12:00−12w239373 0.0 1016146
15:00−12sw24955 0.0 1016114
18:00−16ssw369868 0.0 101585
21:00−14ssw399460 0.0 1014145
20 january, thu
thu2000:00−12ssw5138699 0.0 1012281
03:00−10ssw51583100 0.0 1011376
06:00−9ssw61690100 0.0 1009429
09:00−9s61591100 0.0 1008424
12:00−7s61592100 0.1 1008473
15:00−6s61491100 0.1 1007518
18:00−7s61591100 0.0 1007511
21:00−9s61691100 0.1 1007533
21 january, fri
fri2100:00−9s61691100 0.0 1007528
03:00−10s61591100 0.1 1007508
06:00−9sse51393100 0.1 1006516
09:00−8sse51394100 0.5 1007514
12:00−8sse51493100 0.5 1007509
15:00−7se61593100 0.8 1006670
18:00−8se61491100 0.3 1006759
21:00−7se51291100 0.4 1006617
22 january, sat
sat2200:00−7ese61293100 0.3 1006594
03:00−7se51293100 0.8 1007586
06:00−8se41094100 0.3 1009332
09:00−10ese3896100 0.3 1012177
12:00−8ese4895100 0.0 1014326
15:00−7ese489487 0.1 1016305
18:00−13e2510088 0.0 101961
21:00−16e2210095 0.1 102125
23 january, sun
sun2300:00−19e22100100 0.0 102310
03:00−20ene22100100 0.1 102510
06:00−19ne22100100 0.1 102627
09:00−21ne11100100 0.1 102813
12:00−12nne1195100 0.0 1029116
15:00−11nnw129679 0.1 103050
18:00−18nnw1110090 0.0 10329
21:00−21nnw11100100 0.0 10339